When you browse on this site, cookies collect data to enhance your experience and personalize the content and advertising you see.
Visit our Privacy Policy to learn more. By continuing to use the site, you agree to this use of cookies and data.
  • In Deutschland
  • Länderverzeichnis
  • Für 7 Tage
  • Wassertemperatur
  • Wetterkarte
  • Widgets
  • user-avatar
    Anmelden

    Stündliche Wetter Jewłach

    Heute, 6 Juni, Samstag

    Zeit Temperatur Niederschläge Wind Luftdruck Luftfeuchtigkeit
    00:00 +24°C° 0 mm 3 m/S 763 mmHg 59%
    01:00 +23°C° 0 mm 2 m/S 763 mmHg 60%
    02:00 +23°C° 0 mm 2 m/S 763 mmHg 61%
    03:00 +21°C° 0 mm 2 m/S 763 mmHg 60%
    04:00 +23°C° 0 mm 2 m/S 763 mmHg 59%
    05:00 +23°C° 0 mm 2 m/S 763 mmHg 57%
    06:00 +24°C° 0 mm 2 m/S 763 mmHg 56%
    07:00 +25°C° 0 mm 2 m/S 763 mmHg 51%
    08:00 +27°C° 0 mm 2 m/S 763 mmHg 46%
    09:00 +28°C° 0 mm 3 m/S 763 mmHg 41%
    10:00 +29°C° 0 mm 3 m/S 763 mmHg 38%
    11:00 +30°C° 0 mm 3 m/S 763 mmHg 35%
    12:00 +31°C° 0 mm 3 m/S 763 mmHg 33%
    13:00 +33°C° 0 mm 3 m/S 763 mmHg 32%
    14:00 +33°C° 0 mm 3 m/S 762 mmHg 31%
    15:00 +33°C° 0 mm 3 m/S 762 mmHg 32%
    16:00 +33°C° 0 mm 3 m/S 762 mmHg 33%
    17:00 +33°C° 0 mm 4 m/S 762 mmHg 34%
    18:00 +32°C° 0 mm 4 m/S 763 mmHg 35%
    19:00 +30°C° 0.1 mm 4 m/S 763 mmHg 41%
    20:00 +28°C° 0.1 mm 4 m/S 763 mmHg 47%
    21:00 +26°C° 0.1 mm 5 m/S 763 mmHg 52%
    22:00 +25°C° 0.1 mm 5 m/S 763 mmHg 56%
    23:00 +23°C° 0.1 mm 4 m/S 763 mmHg 59%

    Morgen, 7 Juni, Sonntag

    Zeit Temperatur Niederschläge Wind Luftdruck Luftfeuchtigkeit
    00:00 +22°C° 0.1 mm 4 m/S 763 mmHg 62%
    01:00 +21°C° 0 mm 4 m/S 763 mmHg 64%
    02:00 +21°C° 0 mm 3 m/S 763 mmHg 65%
    03:00 +20°C° 0 mm 2 m/S 763 mmHg 66%
    04:00 +22°C° 0 mm 1 m/S 763 mmHg 63%
    05:00 +23°C° 0 mm 1 m/S 763 mmHg 61%
    06:00 +23°C° 0 mm 1 m/S 763 mmHg 58%
    07:00 +25°C° 0 mm 1 m/S 763 mmHg 52%
    08:00 +27°C° 0 mm 1 m/S 762 mmHg 46%
    09:00 +28°C° 0 mm 2 m/S 762 mmHg 40%
    10:00 +30°C° 0 mm 1 m/S 762 mmHg 37%
    11:00 +31°C° 0 mm 1 m/S 761 mmHg 33%
    12:00 +33°C° 0 mm 1 m/S 761 mmHg 30%
    13:00 +35°C° 0 mm 2 m/S 761 mmHg 27%
    14:00 +35°C° 0 mm 2 m/S 760 mmHg 25%
    15:00 +36°C° 0 mm 2 m/S 760 mmHg 23%
    16:00 +36°C° 0 mm 3 m/S 760 mmHg 23%
    17:00 +36°C° 0 mm 3 m/S 759 mmHg 23%
    18:00 +35°C° 0 mm 4 m/S 759 mmHg 24%
    19:00 +33°C° 0 mm 4 m/S 760 mmHg 29%
    20:00 +30°C° 0 mm 5 m/S 760 mmHg 34%
    21:00 +28°C° 0 mm 6 m/S 761 mmHg 40%
    22:00 +26°C° 0 mm 5 m/S 761 mmHg 44%
    23:00 +25°C° 0 mm 4 m/S 761 mmHg 47%

    übermorgen, 8 Juni, Montag

    Zeit Temperatur Niederschläge Wind Luftdruck Luftfeuchtigkeit
    00:00 +24°C° 0 mm 3 m/S 761 mmHg 51%
    01:00 +22°C° 0 mm 3 m/S 760 mmHg 53%
    02:00 +23°C° 0 mm 2 m/S 760 mmHg 56%
    03:00 +22°C° 0 mm 1 m/S 760 mmHg 58%
    04:00 +23°C° 0 mm 1 m/S 760 mmHg 56%
    05:00 +23°C° 0 mm 1 m/S 760 mmHg 54%
    06:00 +22°C° 0 mm 0 m/S 760 mmHg 53%
    07:00 +26°C° 0 mm 1 m/S 760 mmHg 46%
    08:00 +28°C° 0 mm 2 m/S 760 mmHg 40%
    09:00 +30°C° 0 mm 2 m/S 759 mmHg 34%
    10:00 +31°C° 0 mm 3 m/S 759 mmHg 30%
    11:00 +34°C° 0 mm 3 m/S 759 mmHg 26%
    12:00 +36°C° 0 mm 3 m/S 759 mmHg 23%
    13:00 +36°C° 0 mm 4 m/S 758 mmHg 21%
    14:00 +37°C° 0 mm 4 m/S 758 mmHg 19%
    15:00 +38°C° 0 mm 4 m/S 757 mmHg 18%
    16:00 +37°C° 0 mm 5 m/S 757 mmHg 18%
    17:00 +37°C° 0 mm 5 m/S 757 mmHg 19%
    18:00 +36°C° 0 mm 6 m/S 757 mmHg 20%
    19:00 +33°C° 0 mm 5 m/S 758 mmHg 26%
    20:00 +30°C° 0 mm 5 m/S 758 mmHg 32%
    21:00 +27°C° 0 mm 5 m/S 759 mmHg 38%
    22:00 +26°C° 0 mm 4 m/S 759 mmHg 42%
    23:00 +25°C° 0 mm 4 m/S 759 mmHg 47%

    9 Juni, Dienstag

    Zeit Temperatur Niederschläge Wind Luftdruck Luftfeuchtigkeit
    00:00 +24°C° 0 mm 3 m/S 759 mmHg 52%
    01:00 +23°C° 0 mm 2 m/S 759 mmHg 54%
    02:00 +21°C° 0 mm 2 m/S 759 mmHg 56%
    03:00 +22°C° 0 mm 1 m/S 759 mmHg 59%
    04:00 +23°C° 0 mm 1 m/S 759 mmHg 56%
    05:00 +24°C° 0 mm 1 m/S 759 mmHg 53%
    06:00 +24°C° 0 mm 1 m/S 759 mmHg 50%
    07:00 +26°C° 0 mm 1 m/S 759 mmHg 44%
    08:00 +28°C° 0 mm 1 m/S 759 mmHg 37%
    09:00 +30°C° 0 mm 1 m/S 759 mmHg 31%
    10:00 +32°C° 0 mm 2 m/S 759 mmHg 28%
    11:00 +34°C° 0 mm 3 m/S 759 mmHg 25%
    12:00 +36°C° 0 mm 4 m/S 758 mmHg 22%
    13:00 +36°C° 0 mm 4 m/S 758 mmHg 21%
    14:00 +37°C° 0 mm 4 m/S 758 mmHg 21%
    15:00 +38°C° 0 mm 4 m/S 757 mmHg 20%
    16:00 +37°C° 0 mm 5 m/S 757 mmHg 21%
    17:00 +36°C° 0 mm 5 m/S 757 mmHg 22%
    18:00 +36°C° 0 mm 6 m/S 757 mmHg 24%
    19:00 +34°C° 0 mm 5 m/S 758 mmHg 28%
    20:00 +30°C° 0 mm 4 m/S 758 mmHg 32%
    21:00 +28°C° 0 mm 3 m/S 759 mmHg 36%
    22:00 +27°C° 0 mm 3 m/S 759 mmHg 39%
    23:00 +26°C° 0 mm 2 m/S 759 mmHg 42%

    10 Juni, Mittwoch

    Zeit Temperatur Niederschläge Wind Luftdruck Luftfeuchtigkeit
    00:00 +25°C° 0 mm 1 m/S 759 mmHg 45%
    01:00 +24°C° 0 mm 1 m/S 759 mmHg 46%
    02:00 +24°C° 0 mm 1 m/S 759 mmHg 47%
    03:00 +24°C° 0 mm 1 m/S 758 mmHg 48%
    04:00 +24°C° 0 mm 1 m/S 759 mmHg 46%
    05:00 +25°C° 0 mm 1 m/S 759 mmHg 44%
    06:00 +26°C° 0 mm 1 m/S 759 mmHg 42%
    07:00 +28°C° 0 mm 1 m/S 759 mmHg 37%
    08:00 +30°C° 0 mm 1 m/S 759 mmHg 32%
    09:00 +32°C° 0 mm 1 m/S 759 mmHg 27%
    10:00 +33°C° 0 mm 1 m/S 759 mmHg 25%
    11:00 +36°C° 0 mm 2 m/S 758 mmHg 23%
    12:00 +37°C° 0 mm 3 m/S 758 mmHg 21%
    13:00 +38°C° 0 mm 4 m/S 758 mmHg 20%
    14:00 +40°C° 0 mm 4 m/S 757 mmHg 20%
    15:00 +41°C° 0 mm 4 m/S 757 mmHg 19%
    16:00 +40°C° 0 mm 5 m/S 757 mmHg 20%
    17:00 +39°C° 0 mm 5 m/S 757 mmHg 21%
    18:00 +39°C° 0 mm 5 m/S 757 mmHg 21%
    19:00 +36°C° 0 mm 5 m/S 757 mmHg 24%
    20:00 +34°C° 0 mm 4 m/S 758 mmHg 26%
    21:00 +30°C° 0 mm 4 m/S 758 mmHg 29%
    22:00 +29°C° 0 mm 3 m/S 758 mmHg 29%
    23:00 +28°C° 0 mm 3 m/S 758 mmHg 29%

    11 Juni, Donnerstag

    Zeit Temperatur Niederschläge Wind Luftdruck Luftfeuchtigkeit
    00:00 +27°C° 0 mm 3 m/S 758 mmHg 29%
    01:00 +26°C° 0 mm 2 m/S 757 mmHg 30%
    02:00 +25°C° 0 mm 2 m/S 757 mmHg 32%
    03:00 +25°C° 0 mm 1 m/S 757 mmHg 33%
    04:00 +25°C° 0 mm 1 m/S 757 mmHg 33%
    05:00 +24°C° 0 mm 0 m/S 757 mmHg 32%
    06:00 +25°C° 0 mm 0 m/S 757 mmHg 32%
    07:00 +27°C° 0 mm 0 m/S 757 mmHg 28%
    08:00 +31°C° 0 mm 1 m/S 756 mmHg 24%
    09:00 +33°C° 0 mm 1 m/S 756 mmHg 21%
    10:00 +34°C° 0.2 mm 1 m/S 756 mmHg 19%
    11:00 +36°C° 0.2 mm 2 m/S 756 mmHg 17%
    12:00 +37°C° 0.2 mm 2 m/S 756 mmHg 15%
    13:00 +38°C° 0 mm 3 m/S 755 mmHg 14%
    14:00 +40°C° 0 mm 4 m/S 754 mmHg 13%
    15:00 +42°C° 0 mm 5 m/S 754 mmHg 12%
    16:00 +41°C° 0 mm 5 m/S 754 mmHg 13%
    17:00 +40°C° 0 mm 6 m/S 754 mmHg 14%
    18:00 +40°C° 0 mm 6 m/S 754 mmHg 16%
    19:00 +37°C° 0 mm 5 m/S 755 mmHg 17%
    20:00 +34°C° 0 mm 5 m/S 755 mmHg 19%
    21:00 +32°C° 0 mm 4 m/S 755 mmHg 21%
    22:00 +30°C° 0 mm 3 m/S 755 mmHg 24%
    23:00 +29°C° 0 mm 3 m/S 755 mmHg 26%
    Mehr zeigen